Location: G�ppingen
(48.7089°N, 9.6563°E)
Time: 07:59:26
(UTC+02:00)

M-CUBED/EXP-1 PRIME - Pass Details

Date: 26 March 2019
Orbit: 430 x 671 km, 101.7° (Epoch: 20 April)

Event Time Altitude Azimuth Distance (km) Brightness Sun altitude
Rises 21:51:38 0° 10° (N) 2,956 ? -28.9°
Reaches altitude 10° 21:54:05 10° 357° (N) 2,069 ? -29.1°
Maximum altitude 21:57:48 26° 302° (WNW) 1,320 ? -29.6°
Drops below altitude 10° 22:01:34 10° 247° (WSW) 2,101 ? -30.0°
Sets 22:04:05 0° 235° (SW) 3,011 ? -30.3°
